Weather in Sysoi

Russia / Ryazan Oblast     53°49′36″N   41°04′36″E
temp.,
°C
wind,
m/s
gust,
m/s
humid.,
%
clouds,
%
prec.,
mm/h
press.,
hPa
HPBL,
m
4 march, thu
thu400:00−1w61292100 0.1 1011643
03:00−3wsw61292100 0.1 1009446
06:00−1wsw71393100 0.0 1006654
09:00−1wsw91690100 0.3 1004643
12:000wsw81686100 0.0 1003821
15:000wsw81387100 0.0 1002892
18:00−1wsw61292100 0.1 1001619
21:00−2w51097100 0.4 1001449
5 march, fri
fri500:00−2w4897100 0.9 1000395
03:00−4nne3697100 1.4 1002238
06:00−5nw3796100 0.4 1004171
09:00−6nw369697 0.4 1006218
12:00−4nw35911 0.0 1008382
15:00−3w358810 0.0 1010513
18:00−7w34929 0.0 101150
21:00−9w349335 0.0 101437
6 march, sat
sat600:00−10wnw239163 0.0 101521
03:00−11wnw129170 0.0 101621
06:00−13n119136 0.0 101621
09:00−10e119123 0.0 101629
12:00−7sse128588 0.0 1016226
15:00−6ssw118682 0.0 1015212
18:00−8wsw119399 0.0 101521
21:00−10w229695 0.1 101621
7 march, sun
sun700:00−9wnw369693 0.2 1016140
03:00−13wnw349673 0.3 101639
06:00−14sw48925 0.0 1014137
09:00−9sw8158646 0.0 1011451
12:00−5sw101779100 0.0 1007865
15:00−4sw121892100 0.4 10031247
18:00−3wsw101893100 1.7 10001125
21:00−5w61285100 2.9 1001612
8 march, mon
mon800:00−11wsw458337 0.0 100377
03:00−11sw5117919 0.0 1002195
06:00−9ssw5129423 0.0 999281
09:00−6sw7149060 0.0 998635
12:00−6w101378100 0.5 9991312
15:00−7w101681100 0.6 10031538
18:00−8wnw71384100 0.1 1007956
21:00−11w5118881 0.1 1010245